[[{"header":{"parameterUnit":"m.s-1","parameterCategory":1,"la1":30.2992,"la2":30.254,"lo1":-89.0895,"lo2":-89.0443,"dy":0.0025,"dx":0.0025,"nx":19,"ny":19,"refTime":"2026-03-18T03:00:00:Z","depth":0,"parameterNumber":2,"parameterNumberName":"U-component_of_WINDS"},"data":[0,0,0,-4.2883,-4.2887,-4.3024,-4.3024,-4.3213,-4.3215,0,0,0,0,0,0,0,0,0,0,0,-4.2852,-4.2853,-4.2883,-4.2887,-4.3024,-4.3024,-4.3213,-4.3215,0,0,0,0,0,0,0,0,0,0,0,-4.2851,-4.2853,-4.2855,-4.2887,-4.3024,-4.3024,-4.3213,-4.3104,0,0,0,0,0,0,0,0,0,0,-4.2969,-4.2948,-4.2852,-4.2855,-4.2888,-4.3024,-4.3024,-4.3099,-4.3111,-4.3157,0,-4.3201,0,-4.3211,-4.3229,-4.3229,0,0,0,-4.288,-4.2938,-4.2967,-4.2855,-4.289,-4.3023,-4.296,-4.3105,-4.3119,-4.3174,-4.3204,-4.321,-4.3214,-4.323,-4.3231,-4.3521,-4.3523,0,0,-4.2873,-4.2881,-4.2957,-4.2976,-4.2956,-4.2956,-4.2964,-4.3113,-4.3147,-4.3204,-4.3214,-4.3218,-4.3231,-4.3233,-4.352,-4.3522,0,0,0,-4.2855,-4.2876,-4.2901,-4.2969,-4.2993,-4.296,-4.297,-4.314,-4.3148,-4.3216,-4.322,-4.3232,-4.3235,-4.3518,-4.3521,-4.3611,0,0,0,-4.2851,-4.2866,-4.2898,-4.2904,-4.299,-4.3068,-4.2993,-4.3137,-4.3154,-4.3219,-4.3233,-4.3237,-4.3516,-4.3519,-4.3605,-4.3653,0,0,0,-4.284,-4.2864,-4.2887,-4.2904,-4.2964,-4.3065,-4.3081,-4.3141,-4.3156,-4.323,-4.3238,-4.3515,-4.3519,-4.3599,-4.3643,-4.3732,0,0,0,-4.283,-4.2965,-4.2889,-4.3041,-4.2963,-4.3121,-4.308,-4.3197,-4.3271,-4.3234,-4.3516,-4.352,-4.3597,-4.3637,-4.3726,-4.3809,-4.3844,0,0,-4.3005,-4.2987,-4.3076,-4.3011,-4.3185,-4.3099,-4.3286,-4.3345,-4.3345,-4.3462,-4.3469,-4.3607,-4.3643,-4.3731,-4.4037,-4.4065,0,0,0,-4.3134,-4.3198,-4.3242,-4.3313,-4.3362,-4.3408,-4.3438,-4.346,-4.356,-4.3407,-4.3662,-4.3684,-4.3735,-4.3774,-4.3798,-4.3842,-4.3539,-4.3538,-4.3538,-4.3393,-4.3385,-4.3532,-4.3541,-4.361,-4.364,-4.3696,-4.3731,-4.3702,-4.3763,-4.3798,-4.3984,-4.403,-4.4048,-4.4094,-4.384,-4.3841,-4.3841,-4.3841,-4.3649,-4.3739,-4.3698,-4.3826,-4.3817,-4.3925,-4.3959,-4.3935,-4.4034,-4.3957,-4.4002,-4.3919,-4.4079,-4.4119,-4.3848,-4.3847,-4.3846,-4.3845,-4.3845,-4.3818,-4.386,-4.3885,-4.3987,-4.4066,-4.407,-4.4167,-4.4155,-4.4145,-4.4189,-4.4225,-4.4224,-4.4221,-4.4207,-4.4208,-4.4208,-4.4209,-4.421,-4.421,-4.3984,-4.4009,-4.4093,-4.4157,-4.4201,-4.4257,-4.4289,-4.4332,-4.4377,-4.4361,-4.4361,-4.4327,-4.4096,-4.4038,-4.422,-4.4218,-4.4217,-4.4216,-4.4215,-4.4247,-4.4186,-4.4315,-4.4359,-4.4433,-4.4513,-4.4497,-4.4586,-4.462,-4.4668,-4.4625,-4.4456,-4.4436,-4.4417,-4.4369,-4.4625,-4.4625,-4.4625,-4.4626,-4.439,-4.4379,-4.4508,-4.458,-4.4649,-4.4648,-4.4794,-4.482,-4.4837,-4.4858,-4.4819,-4.4755,-4.4736,-4.4727,-4.4701,-4.4657,-4.498,-4.4981,-4.4981,-4.4552,-4.4547,-4.4674,-4.469,-4.4747,-4.4797,-4.4934,-4.5018,-4.5025,-4.4995,-4.4874,-4.4859,-4.4755,-4.4721,-4.4689,-4.4649,-4.4567,0,0]},{"header":{"parameterUnit":"m.s-1","parameterCategory":1,"la1":30.2992,"la2":30.254,"lo1":-89.0895,"lo2":-89.0443,"dy":0.0025,"dx":0.0025,"nx":19,"ny":19,"refTime":"2026-03-18T03:00:00:Z","depth":0,"parameterNumber":3,"parameterNumberName":"V-component_of_WINDS"},"data":[0,0,0,-1.6221,-1.6223,-1.6323,-1.6323,-1.6458,-1.646,0,0,0,0,0,0,0,0,0,0,0,-1.6196,-1.6197,-1.6221,-1.6223,-1.6322,-1.6323,-1.6458,-1.646,0,0,0,0,0,0,0,0,0,0,0,-1.6195,-1.6196,-1.6198,-1.6224,-1.6322,-1.6323,-1.6458,-1.638,0,0,0,0,0,0,0,0,0,0,-1.6282,-1.6263,-1.6196,-1.6198,-1.6224,-1.6322,-1.6323,-1.6376,-1.6385,-1.6417,0,-1.6445,0,-1.6455,-1.6469,-1.647,0,0,0,-1.622,-1.6256,-1.6279,-1.6198,-1.6225,-1.6322,-1.6277,-1.6381,-1.6391,-1.6428,-1.6447,-1.6452,-1.6457,-1.647,-1.6471,-1.6662,-1.6663,0,0,-1.6215,-1.6216,-1.6272,-1.6285,-1.6269,-1.6274,-1.628,-1.6387,-1.6408,-1.6448,-1.6455,-1.6459,-1.6471,-1.6472,-1.6661,-1.6662,0,0,0,-1.6201,-1.6213,-1.6232,-1.628,-1.6297,-1.6277,-1.6284,-1.6403,-1.6409,-1.6457,-1.6461,-1.6472,-1.6474,-1.666,-1.6661,-1.6713,0,0,0,-1.6198,-1.6204,-1.623,-1.6232,-1.6295,-1.6351,-1.6298,-1.6402,-1.6414,-1.646,-1.6472,-1.6475,-1.6658,-1.666,-1.6709,-1.6738,0,0,0,-1.6188,-1.6203,-1.6219,-1.6232,-1.6274,-1.6349,-1.6362,-1.6405,-1.6417,-1.647,-1.6475,-1.6658,-1.666,-1.6706,-1.6732,-1.6788,0,0,0,-1.6178,-1.6264,-1.622,-1.6318,-1.6274,-1.638,-1.6361,-1.6441,-1.6492,-1.6473,-1.6659,-1.6661,-1.6705,-1.6728,-1.6785,-1.6837,-1.6858,0,0,-1.6287,-1.6277,-1.6335,-1.6298,-1.6412,-1.6365,-1.6488,-1.6534,-1.6539,-1.6621,-1.6625,-1.671,-1.6732,-1.6788,-1.6977,-1.6994,0,0,0,-1.637,-1.6411,-1.6441,-1.649,-1.6527,-1.6561,-1.6588,-1.6605,-1.6675,-1.6581,-1.6746,-1.6758,-1.6791,-1.6816,-1.683,-1.6859,-1.6672,-1.6672,-1.6672,-1.6527,-1.6527,-1.6622,-1.6634,-1.6682,-1.6709,-1.6748,-1.6775,-1.6762,-1.6801,-1.6826,-1.6941,-1.697,-1.698,-1.701,-1.6853,-1.6853,-1.6853,-1.6853,-1.6688,-1.6747,-1.6726,-1.6811,-1.6811,-1.6883,-1.6912,-1.69,-1.6968,-1.6922,-1.6951,-1.6902,-1.6999,-1.7025,-1.6857,-1.6856,-1.6856,-1.6856,-1.6855,-1.6791,-1.6819,-1.6838,-1.6908,-1.6963,-1.6972,-1.7037,-1.7035,-1.7033,-1.7062,-1.7088,-1.7087,-1.7087,-1.7074,-1.7075,-1.7075,-1.7075,-1.7076,-1.7076,-1.6892,-1.6911,-1.6966,-1.7012,-1.7043,-1.7083,-1.7111,-1.7141,-1.7175,-1.7168,-1.7168,-1.7152,-1.7008,-1.6972,-1.7082,-1.7081,-1.708,-1.708,-1.7079,-1.7056,-1.7018,-1.7103,-1.7134,-1.7188,-1.7242,-1.7238,-1.73,-1.7325,-1.7358,-1.7335,-1.7229,-1.7219,-1.7207,-1.7178,-1.7334,-1.7334,-1.7334,-1.7334,-1.7144,-1.7138,-1.7224,-1.7274,-1.7322,-1.7326,-1.7423,-1.7446,-1.7464,-1.7479,-1.7456,-1.7417,-1.7405,-1.7402,-1.7386,-1.7359,-1.7558,-1.7558,-1.7558,-1.7245,-1.7243,-1.7326,-1.7342,-1.7384,-1.742,-1.7511,-1.757,-1.7582,-1.7567,-1.7492,-1.7482,-1.7418,-1.7398,-1.7382,-1.7357,-1.7307,0,0]}]]